Location: Newark
(42.8481°N, 0.4872°E)
Time: 00:19:33
(UTC+00:00)

Transit 2A - Pass Details

Date: 29 October 2020
Orbit: 595 x 963 km, 66.7° (Epoch: 03 December)

Event Time Altitude Azimuth Distance (km) Brightness Sun altitude
Rises 22:43:19 0° 153° (SSE) 3,605 - -58.4°
Reaches altitude 10° 22:47:17 10° 129° (SE) 2,689 - -58.7°
Maximum altitude 22:50:12 14° 101° (ESE) 2,442 - -58.9°
Drops below altitude 10° 22:53:07 10° 74° (ENE) 2,695 - -59.2°
Sets 22:57:05 0° 50° (NE) 3,619 - -59.4°
